Notices

What's New in latest Release from April 7th, 2021:

- Updated Glossary, including Speed of Maximum Gust, and Total Hourly Precipitation

- Updated national and regional climate services offices contacts and prices information

- Addition of station inventory lists for 1981-2010, 1971-2000, and 1961-1990 Normals.

If you haven't already, please take our survey and provide feedback about our website: https://eccc.sondage-survey.ca/f/LanguageSelection.aspx?s=442ca660-fcf1-47c0-95a9-59707d6fd709

Hourly Data Report for November 23, 2019

OTTAWA INTL A
ONTARIO
Current Station Operator: NAVCAN

45°19'00.000" N
75°40'00.000" W
114.90 m
6106001
71628
YOW

Download Data

Hourly Data (November 2019)
Hourly Data Report for November 23, 2019
TIME
LST
Temp Definition
°C
Dew Point Definition
°C
Rel Hum Definition
%
Precip. Amount Definition
mm

Wind Dir Definition
10's deg

Wind Spd Definition
km/h
Visibility Definition
km
Stn Press Definition
kPa
Hmdx Definition


Wind Chill Definition


Weather Definition


00:00 -5.0 -9.8 69   28 18 24.1 100.11   -11 LegendNANA
01:00 -5.4 -9.7 72   28 14 24.1 100.11   -11 Clear
02:00 -6.3 -9.7 77   24 8 24.1 100.12   -10 LegendNANA
03:00 -6.3 -9.7 77   26 5 24.1 100.08   -9 LegendNANA
04:00 -7.6 -10.0 83   20 8 24.1 100.02   -12 Clear
05:00 -7.4 -10.0 82   19 11 24.1 100.02   -12 LegendNANA
06:00 -5.9 -9.0 79   20 8 24.1 100.01   -10 LegendNANA
07:00 -4.8 -8.1 78   20 10 24.1 99.96   -9 Mostly Cloudy
08:00 -3.6 -7.3 76   21 14 24.1 99.95   -9 LegendNANA
09:00 -2.5 -6.0 77   20 16 24.1 99.91   -8 LegendNANA
10:00 -0.8 -5.2 72   21 18 24.1 99.86   -6 Mostly Cloudy
11:00 1.0 -4.8 66   22 21 24.1 99.78     LegendNANA
12:00 2.9 -4.4 59   23 20 24.1 99.62     LegendNANA
13:00 4.2 -4.2 54   20 20 24.1 99.53     Mainly Clear
14:00 4.0 -4.6 54   21 23 24.1 99.50     LegendNANA
15:00 4.4 -4.4 53   21 24 24.1 99.43     LegendNANA
16:00 3.7 -4.0 57   20 22 24.1 99.39     Clear
17:00 1.8 -3.4 68   20 18 24.1 99.33     LegendNANA
18:00 0.8 -2.6 78   20 13 24.1 99.29     LegendNANA
19:00 0.1 -2.6 82   20 11 24.1 99.25     Clear
20:00 -0.7 -3.1 84   21 10 24.1 99.25   -4 LegendNANA
21:00 -0.4 -2.6 85   36 3 24.1 99.17   -1 LegendNANA
22:00 -2.7 -5.2 83   13 4 24.1 99.09   -4 Mostly Cloudy
23:00 -1.2 -2.5 91   10 7 24.1 99.03   -4 LegendNANA

Notes on Data Quality.

Legend

  • E = Estimated
  • M = Missing
  • NA = Not Available*
  • [empty] = Indicates an unobserved value
Date modified: